Theta_e
300 303 303 302 302 302 303 303 303 303 304 305 306 305 305 310 313 313 314 320 322 324 325 325 325 325 323 321 321 321 322 322 323 320 318 317 318 317 317 317 316 316 317
297 299 299 300 300 301 301 301 302 301 301 303 306 307 307 312 311 305 303 305 311 315 318 323 322 321 321 322 322 322 321 321 322 317 316 312 311 312 315 316 317 316 316
298 297 298 299 299 298 299 300 299 299 300 301 306 308 310 308 307 304 299 299 301 303 305 307 309 310 313 310 311 314 318 318 319 320 317 311 309 308 312 313 314 314 313
295 296 298 298 297 297 297 297 297 297 298 300 306 307 308 305 302 299 296 296 297 298 299 301 302 302 303 303 305 311 313 314 315 318 318 319 316 310 307 311 311 312 311
294 295 297 300 297 296 294 294 295 295 295 298 303 306 303 300 296 295 294 294 294 295 296 297 297 298 299 300 301 301 303 305 309 309 310 315 316 316 312 308 307 307 309
292 293 295 296 295 293 292 292 293 293 293 295 297 299 298 296 294 293 292 291 291 291 292 293 294 295 296 296 296 297 296 297 298 301 302 303 301 301 303 304 302 301 304
292 292 293 293 292 290 290 291 291 291 291 292 292 294 295 295 294 293 291 290 289 288 289 290 291 292 293 293 293 293 292 292 293 294 294 296 295 297 297 297 296 295 298
293 293 293 293 291 289 289 290 290 289 289 289 289 289 290 290 290 289 288 287 287 287 288 289 290 290 291 291 291 291 291 290 290 290 291 290 290 291 292 295 293 290 291
293 292 292 291 289 289 288 289 289 289 288 287 287 287 287 287 286 286 286 286 286 288 287 289 288 288 289 289 289 288 288 288 288 288 288 287 287 288 287 287 288 288 283
292 292 291 291 290 289 288 288 288 288 287 286 286 286 285 285 285 285 285 285 285 286 287 287 286 286 286 287 286 286 287 286 286 286 285 284 284 284 285 285 283 283 284
292 292 291 290 290 289 288 286 286 287 286 286 285 284 284 284 284 284 284 283 284 285 285 285 285 284 284 284 284 285 285 283 283 283 282 282 282 281 281 282 281 280 280
292 291 291 290 289 288 287 286 285 286 285 285 284 284 283 283 282 282 282 283 283 284 285 284 283 283 283 283 283 283 282 281 281 281 280 280 282 280 280 280 280 279 280
290 291 289 289 289 288 286 286 285 284 285 284 283 282 282 281 281 281 281 282 282 282 284 283 282 282 282 281 282 281 280 280 280 279 279 279 279 279 279 279 278 279 280
291 291 289 289 288 288 287 285 284 284 284 283 282 282 281 281 280 281 281 281 281 281 282 282 281 281 281 281 281 281 279 279 279 280 279 279 278 278 278 279 278 278 278
290 290 290 290 289 287 286 285 285 284 283 283 282 281 281 280 279 279 280 280 280 280 281 281 280 280 280 281 280 280 279 278 278 279 279 278 278 280 280 278 277 277 277
291 291 290 290 289 288 288 286 286 284 283 282 282 280 280 279 279 279 279 279 280 279 280 280 280 280 281 283 283 280 279 279 278 277 277 277 276 278 279 279 279 278 276
291 291 291 291 290 289 288 286 286 282 282 281 280 280 279 279 279 279 278 278 278 278 279 279 279 279 280 283 281 281 278 277 276 276 276 276 276 276 277 277 277 277 277
292 292 291 291 290 289 287 285 283 281 281 280 280 279 279 278 278 278 278 277 277 277 277 278 278 278 280 282 280 279 277 276 275 276 275 274 274 276 276 274 274 274 274
294 294 292 290 289 288 286 283 280 279 279 279 279 278 278 278 277 277 276 276 276 276 277 278 278 278 279 282 280 278 276 276 275 275 275 275 274 276 277 273 272 272 273
291 289 287 285 285 284 282 281 279 278 277 278 277 278 278 277 277 276 276 276 277 277 278 278 278 277 277 281 279 278 277 275 275 275 275 275 275 276 275 272 270 270 271
287 281 281 282 281 279 279 279 277 277 277 277 276 276 277 276 277 276 276 276 276 277 276 276 276 276 275 277 280 278 276 276 275 274 274 273 274 275 274 273 270 270 271
281 279 278 278 276 277 277 277 276 275 274 274 274 274 274 276 276 275 275 275 276 275 274 274 273 274 274 276 278 277 276 275 274 273 274 273 274 273 272 270 270 270 267
280 278 277 276 274 275 276 275 273 273 272 272 271 271 273 274 275 274 273 273 274 273 273 273 272 271 272 273 275 276 276 274 273 274 274 272 270 269 268 267 268 265 263
278 274 272 272 271 270 274 273 272 271 271 270 270 271 271 271 272 273 273 273 272 272 272 272 271 270 270 270 271 271 273 275 273 273 268 268 267 266 266 264 264 263 262
273 271 272 272 271 269 268 268 269 270 269 269 269 270 270 270 270 271 271 272 272 274 271 271 271 269 269 270 272 271 271 271 272 266 264 263 263 261 261 261 260 260 260
271 270 271 269 267 266 265 265 267 269 269 268 269 268 269 269 269 269 268 275 274 276 276 275 272 271 272 273 274 274 275 275 274 261 257 260 261 260 260 258 257 258 257
Wind_Speed
8 7 7 6 6 5 7 7 6 3 2 1 0 1 2 1 2 3 5 3 1 2 4 3 3 1 2 2 2 2 2 3 2 2 3 3 5 5 4 3 3 4 4
8 7 6 7 8 7 6 5 5 4 2 2 2 2 2 3 3 3 5 7 6 6 5 3 3 2 2 5 4 3 2 2 1 1 1 4 5 3 3 2 3 3 1
14 9 8 11 8 8 8 7 6 4 2 2 2 2 2 2 2 3 3 5 6 6 6 6 4 4 3 3 3 4 4 2 0 1 2 2 3 3 2 2 1 3 3
8 8 9 7 9 8 6 5 5 4 2 3 4 5 3 3 1 3 3 4 6 6 6 5 6 4 4 4 2 3 2 3 2 1 3 4 2 2 4 1 2 3 5
8 11 12 15 8 8 7 5 4 3 1 3 4 5 4 3 3 3 5 5 5 5 5 6 5 5 4 3 4 4 4 2 2 1 2 2 2 3 3 3 2 3 4
8 9 7 6 7 7 7 6 6 3 2 3 3 6 8 7 5 4 4 3 3 3 5 5 5 5 4 4 3 4 4 3 2 1 2 0 0 1 0 1 2 2 3
5 6 7 8 7 8 8 7 7 5 3 5 4 5 6 7 7 5 4 4 2 2 4 3 4 3 4 4 4 4 4 4 3 3 2 3 3 2 1 0 1 1 1
7 7 7 6 7 8 7 6 6 5 5 5 5 4 5 4 4 4 3 3 3 2 2 3 4 4 4 4 4 3 3 4 4 6 5 3 4 3 2 2 1 1 2
6 6 4 6 7 8 9 8 7 5 5 5 5 4 4 6 5 6 5 3 3 3 3 3 4 4 4 4 4 3 4 4 4 5 5 4 4 4 4 3 2 1 2
5 3 3 5 5 5 6 7 7 7 6 6 5 4 5 5 5 5 5 5 3 3 4 4 4 3 4 4 4 3 4 5 4 4 5 5 4 5 4 4 4 3 1
5 4 4 6 7 5 6 6 6 6 6 6 6 6 5 5 5 5 5 5 4 4 4 4 4 3 3 4 4 5 5 6 5 5 6 6 5 4 4 4 4 4 4
4 4 6 6 6 7 7 7 7 7 6 6 5 5 5 5 5 5 4 4 5 3 4 4 4 4 4 4 4 5 5 5 5 5 6 5 5 5 5 4 5 4 3
4 4 5 8 9 8 8 7 7 7 7 7 6 6 6 5 5 5 4 4 5 5 5 5 4 4 4 5 5 5 5 5 5 5 5 5 5 5 3 4 3 2 2
4 5 6 7 7 7 7 8 8 8 7 7 7 7 7 6 6 5 5 5 4 5 5 5 5 4 5 5 5 5 5 5 5 5 5 5 5 4 4 4 3 4 3
8 8 5 7 7 7 7 8 9 9 9 9 9 8 6 6 6 6 5 6 5 5 5 6 5 5 5 4 5 6 6 6 5 5 6 6 6 9 7 4 3 3 3
10 8 8 7 8 10 11 8 10 10 10 11 10 8 8 8 7 6 6 6 5 5 5 5 5 4 3 8 9 7 6 5 5 4 5 4 5 5 8 8 7 5 4
10 10 11 10 9 9 9 11 10 7 10 10 9 10 10 9 8 7 7 7 7 6 5 6 6 5 4 8 8 8 5 5 5 4 3 3 3 3 4 6 5 5 6
14 12 9 8 9 5 7 6 8 10 11 10 9 9 10 10 9 8 8 6 5 6 6 6 6 5 5 9 8 8 5 5 5 4 4 4 2 3 3 4 4 4 3
14 12 9 6 4 6 5 7 7 7 8 10 11 11 11 11 10 10 9 6 6 6 7 8 8 7 6 12 10 8 5 5 5 4 4 3 1 3 7 4 4 4 3
9 8 6 4 4 3 4 6 7 7 8 8 8 9 10 11 11 11 11 8 8 8 7 8 7 7 6 12 10 7 5 5 4 4 5 4 1 3 5 3 2 4 6
8 3 5 6 4 4 6 6 6 9 5 7 8 9 10 10 10 10 7 9 9 8 7 7 7 6 5 6 10 8 4 3 4 3 3 2 3 4 5 5 2 3 5
6 4 4 5 3 5 6 6 7 5 7 7 7 7 7 7 8 10 7 8 8 8 7 8 6 5 5 6 9 8 6 4 3 4 3 2 1 4 4 2 5 6 5
7 4 6 6 5 6 6 6 5 7 7 7 7 7 7 7 8 10 9 8 8 8 8 8 7 6 4 2 8 9 8 4 2 3 4 4 2 3 2 3 5 3 2
7 4 5 6 6 5 6 5 9 9 9 9 8 8 9 7 7 6 7 7 7 7 7 7 6 5 5 4 3 4 4 6 4 5 3 3 3 2 2 1 2 2 1
3 4 5 5 5 3 3 5 8 9 9 8 8 8 6 7 6 4 6 6 4 8 7 6 6 7 6 6 8 7 4 4 5 5 2 1 0 1 2 2 2 2 2
3 4 6 4 3 3 3 4 6 9 10 9 7 7 7 6 5 6 4 9 9 11 11 12 7 3 5 9 10 12 12 11 10 3 2 2 3 4 3 3 3 3 4
Wind_Direction
259 233 229 187 172 180 178 182 170 165 136 157 112 333 293 348 44 30 16 23 179 179 153 137 119 107 175 223 268 267 279 254 240 262 302 286 268 267 269 253 260 275 289
256 246 207 193 193 185 188 177 181 179 165 140 187 153 157 83 78 54 37 32 39 44 61 84 100 60 45 24 10 356 304 288 357 299 19 322 329 336 284 267 255 264 320
236 229 206 207 191 195 187 188 186 182 165 180 159 106 88 72 81 43 41 24 41 43 52 45 63 56 71 72 40 15 346 314 309 297 275 272 253 323 321 345 34 51 42
232 228 209 212 204 198 181 178 170 166 173 210 189 176 173 152 107 89 77 48 40 49 51 58 57 57 54 58 26 38 4 330 287 324 223 234 241 296 305 12 5 52 61
225 224 215 213 186 166 171 162 152 136 166 189 181 168 140 119 114 105 102 76 54 48 48 51 55 55 56 51 48 32 24 1 323 340 348 302 255 230 225 261 303 54 56
258 246 242 163 162 154 158 161 156 142 143 139 124 150 146 143 133 137 116 92 66 45 42 52 57 58 62 58 56 56 52 33 44 1 40 69 199 304 243 271 317 357 65
261 238 198 180 160 170 169 164 161 157 140 110 98 124 136 143 144 145 143 140 107 52 43 49 55 57 62 62 66 69 60 38 57 33 56 39 33 352 324 151 272 273 326
259 240 210 186 175 163 156 154 163 156 150 123 109 102 117 119 114 123 119 113 109 110 71 75 72 68 71 71 73 72 71 64 58 61 58 57 34 29 18 340 184 273 289
272 254 205 178 160 162 173 173 172 164 159 142 127 125 128 126 127 119 116 121 121 128 111 104 92 71 71 76 85 89 86 79 67 64 65 62 39 36 29 34 24 183 216
282 245 203 180 177 171 172 176 174 172 167 154 154 157 153 137 134 132 137 138 129 109 122 110 96 85 75 83 87 82 76 83 68 69 73 59 42 41 30 31 31 28 80
268 235 196 187 185 179 178 182 176 173 178 176 170 160 164 157 145 142 144 143 132 130 130 123 106 84 78 74 87 81 79 84 84 74 76 69 55 50 37 31 32 33 27
260 217 194 188 190 199 191 192 188 189 186 174 168 178 165 160 153 151 150 140 137 126 134 120 110 99 84 75 88 87 92 98 91 82 76 69 72 56 45 39 41 31 31
243 212 188 203 206 201 196 195 196 194 186 176 175 175 179 172 166 157 154 150 142 135 128 127 127 119 108 99 87 95 89 79 77 73 69 64 62 54 44 46 32 20 3
254 224 214 225 219 210 203 199 199 193 182 175 181 186 178 177 171 156 148 146 146 144 143 136 129 124 115 109 103 105 99 89 76 78 70 61 59 51 40 47 19 3 343
286 253 231 227 220 216 209 205 207 191 181 187 190 192 165 162 155 156 157 151 155 158 149 139 135 133 135 132 123 119 111 104 92 85 86 64 48 44 33 21 8 356 342
255 272 260 242 216 215 218 207 213 199 178 193 198 167 165 161 166 161 161 154 149 148 145 142 137 131 117 138 132 121 115 113 114 113 111 100 62 22 17 10 9 15 10
243 247 245 238 230 211 204 209 210 159 184 192 180 176 168 168 168 161 157 158 158 146 152 149 147 137 124 136 125 127 119 118 112 104 106 120 65 351 18 356 360 28 10
247 245 238 243 246 226 199 189 168 177 185 189 181 171 171 171 163 159 161 149 149 156 153 152 146 140 148 142 138 131 117 115 109 115 117 117 94 322 31 3 345 1 0
241 238 232 229 235 237 223 183 171 168 173 186 185 178 173 166 161 165 163 156 151 158 160 162 159 157 156 160 157 154 152 149 138 139 132 124 136 2 5 2 341 331 348
233 239 201 191 207 229 164 167 178 169 195 180 172 164 165 166 172 170 166 165 165 165 166 163 161 155 154 171 163 158 167 172 168 168 163 179 230 4 13 17 353 345 346
239 185 189 222 219 160 156 188 173 208 168 145 148 163 168 170 167 160 160 158 162 158 159 159 153 142 141 179 172 173 176 195 181 206 175 199 264 351 5 22 321 330 3
218 196 197 206 178 170 166 183 198 158 142 142 147 149 148 152 149 149 148 155 158 157 156 148 144 150 145 173 193 185 183 192 209 207 185 189 293 355 348 6 327 349 13
216 190 201 195 197 192 183 177 167 141 130 131 134 138 138 141 150 153 154 154 160 164 165 168 162 159 153 147 198 196 204 189 224 240 172 134 64 23 15 337 331 23 15
228 184 173 201 208 203 186 175 159 148 145 145 145 144 145 144 147 150 155 160 167 167 167 172 176 167 155 172 183 199 228 219 227 169 118 117 93 52 338 349 343 341 333
193 179 200 215 225 184 166 157 153 146 148 145 151 152 146 153 141 142 161 167 164 175 170 172 167 166 183 194 196 195 190 208 204 121 107 136 152 254 260 259 263 287 279
173 197 216 215 204 198 188 182 160 153 152 150 155 156 153 146 143 140 145 171 168 178 184 180 164 153 178 198 207 213 230 231 165 105 151 183 218 237 234 236 259 256 243